When you browse on this site, cookies collect data to enhance your experience and personalize the content and advertising you see.
Visit our Privacy Policy to learn more. By continuing to use the site, you agree to this use of cookies and data.
  • In Sweden
  • List of Countries
  • For 7 days
  • Water Temperature
  • Weather Map
  • Weather Widgets
  • user-avatar
    Login

    Hourly Weather Starzyno

    Today, 22 October, Tuesday

    Time Temperature Precipitation Wind Pressure Humidity
    00:00 +16°C° 0 mm 2 mps 757 mmHg 79%
    01:00 +15°C° 0 mm 2 mps 757 mmHg 81%
    02:00 +15°C° 0 mm 2 mps 757 mmHg 82%
    03:00 +15°C° 0 mm 2 mps 757 mmHg 84%
    04:00 +14°C° 0 mm 1 mps 757 mmHg 85%
    05:00 +14°C° 0 mm 1 mps 757 mmHg 86%
    06:00 +14°C° 0 mm 1 mps 758 mmHg 87%
    07:00 +14°C° 0 mm 1 mps 758 mmHg 89%
    08:00 +15°C° 0 mm 1 mps 758 mmHg 83%
    09:00 +18°C° 0 mm 1 mps 758 mmHg 78%
    10:00 +19°C° 0 mm 2 mps 758 mmHg 72%
    11:00 +19°C° 0 mm 2 mps 758 mmHg 69%
    12:00 +20°C° 0 mm 2 mps 758 mmHg 66%
    13:00 +21°C° 0 mm 2 mps 758 mmHg 63%
    14:00 +21°C° 0 mm 1 mps 758 mmHg 67%
    15:00 +21°C° 0 mm 1 mps 757 mmHg 70%
    16:00 +20°C° 0 mm 1 mps 757 mmHg 74%
    17:00 +19°C° 0 mm 1 mps 757 mmHg 78%
    18:00 +16°C° 0 mm 0 mps 757 mmHg 82%
    19:00 +15°C° 0 mm 0 mps 758 mmHg 86%
    20:00 +16°C° 0 mm 1 mps 758 mmHg 87%
    21:00 +15°C° 0 mm 1 mps 758 mmHg 88%
    22:00 +15°C° 0 mm 2 mps 758 mmHg 90%
    23:00 +15°C° 0 mm 2 mps 758 mmHg 90%

    Tomorrow, 23 October, Wednesday

    Time Temperature Precipitation Wind Pressure Humidity
    00:00 +14°C° 0 mm 2 mps 758 mmHg 91%
    01:00 +14°C° 0 mm 2 mps 758 mmHg 92%
    02:00 +14°C° 0 mm 2 mps 758 mmHg 93%
    03:00 +13°C° 0 mm 2 mps 758 mmHg 94%
    04:00 +13°C° 0 mm 2 mps 758 mmHg 94%
    05:00 +13°C° 0 mm 2 mps 758 mmHg 94%
    06:00 +13°C° 0 mm 1 mps 758 mmHg 94%
    07:00 +12°C° 0 mm 1 mps 758 mmHg 94%
    08:00 +14°C° 0 mm 1 mps 758 mmHg 87%
    09:00 +15°C° 0 mm 1 mps 758 mmHg 80%
    10:00 +16°C° 0 mm 1 mps 758 mmHg 72%
    11:00 +18°C° 0 mm 1 mps 758 mmHg 68%
    12:00 +19°C° 0 mm 1 mps 758 mmHg 63%
    13:00 +19°C° 0 mm 1 mps 758 mmHg 59%
    14:00 +19°C° 0 mm 1 mps 757 mmHg 61%
    15:00 +18°C° 0 mm 1 mps 757 mmHg 64%
    16:00 +16°C° 0 mm 1 mps 756 mmHg 66%
    17:00 +16°C° 0 mm 1 mps 756 mmHg 70%
    18:00 +15°C° 0 mm 2 mps 756 mmHg 73%
    19:00 +14°C° 0 mm 2 mps 756 mmHg 77%
    20:00 +14°C° 0 mm 2 mps 756 mmHg 81%
    21:00 +13°C° 0 mm 2 mps 756 mmHg 84%
    22:00 +12°C° 0 mm 3 mps 756 mmHg 88%
    23:00 +12°C° 0 mm 3 mps 756 mmHg 90%

    Day after tomorrow, 24 October, Thursday

    Time Temperature Precipitation Wind Pressure Humidity
    00:00 +12°C° 0 mm 3 mps 756 mmHg 91%
    01:00 +12°C° 0 mm 3 mps 756 mmHg 93%
    02:00 +12°C° 0 mm 3 mps 755 mmHg 93%
    03:00 +12°C° 0 mm 3 mps 755 mmHg 94%
    04:00 +11°C° 0 mm 3 mps 754 mmHg 94%
    05:00 +11°C° 0 mm 3 mps 754 mmHg 95%
    06:00 +12°C° 0 mm 3 mps 754 mmHg 95%
    07:00 +12°C° 0 mm 4 mps 754 mmHg 95%
    08:00 +13°C° 0 mm 4 mps 753 mmHg 88%
    09:00 +15°C° 0 mm 4 mps 753 mmHg 81%
    10:00 +17°C° 0 mm 5 mps 753 mmHg 75%
    11:00 +19°C° 0 mm 5 mps 752 mmHg 70%
    12:00 +20°C° 0 mm 5 mps 752 mmHg 65%
    13:00 +21°C° 0 mm 5 mps 752 mmHg 61%
    14:00 +20°C° 0 mm 5 mps 751 mmHg 63%
    15:00 +19°C° 0 mm 4 mps 751 mmHg 66%
    16:00 +18°C° 0 mm 4 mps 750 mmHg 68%
    17:00 +18°C° 0 mm 3 mps 750 mmHg 71%
    18:00 +17°C° 0 mm 3 mps 751 mmHg 73%
    19:00 +16°C° 0 mm 3 mps 751 mmHg 76%
    20:00 +14°C° 0 mm 3 mps 751 mmHg 76%
    21:00 +14°C° 0 mm 3 mps 751 mmHg 76%
    22:00 +14°C° 0 mm 3 mps 751 mmHg 77%
    23:00 +14°C° 0 mm 3 mps 751 mmHg 75%

    25 October, Friday

    Time Temperature Precipitation Wind Pressure Humidity
    00:00 +14°C° 0 mm 3 mps 751 mmHg 73%
    01:00 +14°C° 0 mm 3 mps 751 mmHg 71%
    02:00 +13°C° 0 mm 3 mps 751 mmHg 71%
    03:00 +13°C° 0 mm 3 mps 751 mmHg 71%
    04:00 +13°C° 0 mm 3 mps 751 mmHg 72%
    05:00 +12°C° 0 mm 3 mps 751 mmHg 76%
    06:00 +12°C° 0 mm 3 mps 752 mmHg 80%
    07:00 +11°C° 0 mm 3 mps 752 mmHg 85%
    08:00 +13°C° 0 mm 4 mps 753 mmHg 82%
    09:00 +14°C° 0 mm 4 mps 753 mmHg 80%
    10:00 +17°C° 0 mm 4 mps 754 mmHg 78%
    11:00 +17°C° 0 mm 4 mps 754 mmHg 72%
    12:00 +17°C° 0 mm 5 mps 754 mmHg 67%
    13:00 +19°C° 0 mm 5 mps 755 mmHg 61%
    14:00 +18°C° 0 mm 4 mps 755 mmHg 63%
    15:00 +18°C° 0 mm 3 mps 755 mmHg 64%
    16:00 +17°C° 0 mm 3 mps 755 mmHg 66%
    17:00 +16°C° 0 mm 3 mps 755 mmHg 70%
    18:00 +14°C° 0 mm 3 mps 756 mmHg 73%
    19:00 +13°C° 0 mm 3 mps 756 mmHg 77%
    20:00 +13°C° 0 mm 3 mps 756 mmHg 79%
    21:00 +13°C° 0 mm 2 mps 756 mmHg 80%
    22:00 +13°C° 0 mm 2 mps 756 mmHg 82%
    23:00 +13°C° 0 mm 2 mps 756 mmHg 82%

    26 October, Saturday

    Time Temperature Precipitation Wind Pressure Humidity
    00:00 +12°C° 0 mm 2 mps 756 mmHg 83%
    01:00 +12°C° 0 mm 2 mps 755 mmHg 83%
    02:00 +11°C° 0 mm 3 mps 755 mmHg 84%
    03:00 +11°C° 0 mm 3 mps 754 mmHg 84%
    04:00 +11°C° 0 mm 3 mps 754 mmHg 85%
    05:00 +11°C° 0 mm 3 mps 753 mmHg 84%
    06:00 +11°C° 0 mm 4 mps 753 mmHg 83%
    07:00 +12°C° 0 mm 5 mps 753 mmHg 82%
    08:00 +13°C° 0 mm 5 mps 753 mmHg 75%
    09:00 +15°C° 0 mm 6 mps 753 mmHg 68%
    10:00 +17°C° 0 mm 6 mps 753 mmHg 60%
    11:00 +17°C° 0 mm 6 mps 752 mmHg 57%
    12:00 +18°C° 0 mm 7 mps 752 mmHg 54%
    13:00 +18°C° 0 mm 7 mps 751 mmHg 51%
    14:00 +17°C° 0 mm 6 mps 751 mmHg 55%
    15:00 +17°C° 0 mm 5 mps 751 mmHg 59%
    16:00 +17°C° 0 mm 4 mps 751 mmHg 63%
    17:00 +15°C° 0 mm 4 mps 751 mmHg 66%
    18:00 +15°C° 0 mm 4 mps 752 mmHg 70%
    19:00 +14°C° 0 mm 4 mps 752 mmHg 74%
    20:00 +14°C° 0 mm 5 mps 752 mmHg 75%
    21:00 +14°C° 0 mm 5 mps 752 mmHg 76%
    22:00 +13°C° 0 mm 5 mps 752 mmHg 77%
    23:00 +13°C° 0.1 mm 5 mps 753 mmHg 75%

    27 October, Sunday

    Time Temperature Precipitation Wind Pressure Humidity
    00:00 +12°C° 0.1 mm 5 mps 753 mmHg 73%
    01:00 +10°C° 0.1 mm 6 mps 753 mmHg 71%
    02:00 +9°C° 0.1 mm 5 mps 753 mmHg 71%
    03:00 +9°C° 0.1 mm 5 mps 753 mmHg 71%
    04:00 +8°C° 0.1 mm 5 mps 753 mmHg 72%
    05:00 +7°C° 0.2 mm 5 mps 753 mmHg 71%
    06:00 +7°C° 0.2 mm 5 mps 753 mmHg 71%
    07:00 +7°C° 0.2 mm 5 mps 753 mmHg 71%
    08:00 +7°C° 0 mm 5 mps 754 mmHg 69%
    09:00 +7°C° 0 mm 5 mps 754 mmHg 67%
    10:00 +7°C° 0 mm 6 mps 754 mmHg 66%
    11:00 +8°C° 0 mm 6 mps 754 mmHg 63%
    12:00 +8°C° 0 mm 6 mps 754 mmHg 60%
    13:00 +8°C° 0 mm 7 mps 754 mmHg 57%
    14:00 +8°C° 0 mm 6 mps 754 mmHg 57%
    15:00 +8°C° 0 mm 5 mps 754 mmHg 56%
    16:00 +8°C° 0 mm 5 mps 754 mmHg 56%
    17:00 +7°C° 0 mm 4 mps 754 mmHg 58%
    18:00 +6°C° 0 mm 4 mps 755 mmHg 60%
    19:00 +5°C° 0 mm 4 mps 755 mmHg 62%
    20:00 +5°C° 0 mm 5 mps 755 mmHg 62%
    21:00 +5°C° 0 mm 5 mps 755 mmHg 63%
    22:00 +5°C° 0 mm 5 mps 755 mmHg 63%
    23:00 +5°C° 0 mm 5 mps 755 mmHg 65%

    28 October, Monday

    Time Temperature Precipitation Wind Pressure Humidity
    00:00 +3°C° 0 mm 5 mps 755 mmHg 67%
    01:00 +3°C° 0 mm 5 mps 755 mmHg 70%
    02:00 +3°C° 0 mm 5 mps 755 mmHg 72%
    03:00 +3°C° 0 mm 5 mps 755 mmHg 74%
    04:00 +2°C° 0 mm 5 mps 754 mmHg 76%
    05:00 +2°C° 0 mm 5 mps 754 mmHg 78%
    06:00 +2°C° 0 mm 5 mps 754 mmHg 81%
    07:00 +2°C° 0 mm 5 mps 755 mmHg 83%
    08:00 +3°C° 0 mm 5 mps 755 mmHg 78%
    09:00 +5°C° 0 mm 5 mps 755 mmHg 73%
    10:00 +6°C° 0 mm 5 mps 755 mmHg 68%
    11:00 +7°C° 0 mm 6 mps 754 mmHg 64%
    12:00 +7°C° 0 mm 6 mps 754 mmHg 59%
    13:00 +8°C° 0 mm 6 mps 754 mmHg 55%
    14:00 +7°C° 0 mm 6 mps 754 mmHg 55%
    15:00 +7°C° 0 mm 5 mps 754 mmHg 55%
    16:00 +7°C° 0 mm 5 mps 754 mmHg 55%
    17:00 +7°C° 0 mm 5 mps 754 mmHg 55%
    18:00 +6°C° 0 mm 4 mps 754 mmHg 54%
    19:00 +6°C° 0 mm 4 mps 754 mmHg 54%
    20:00 +5°C° 0 mm 4 mps 754 mmHg 59%
    21:00 +5°C° 0 mm 4 mps 754 mmHg 64%
    22:00 +4°C° 0 mm 4 mps 754 mmHg 69%
    23:00 +4°C° 0 mm 4 mps 754 mmHg 71%
    Show more